Weather History for Juliana Airport, St. Martin

Change the Weather History Date:

Saturday, October 13, 2012

  Actual Average Record
Temperature  
Mean Temperature 78 °F -  
Max Temperature 82 °F 85 °F 91 °F (2004)
Min Temperature 75 °F 75 °F 37 °F (2002)
Cooling Degree Days 14    
Growing Degree Days 28 (Base 50)    
Moisture  
Dew Point 76 °F    
Average Humidity 90    
Maximum Humidity 100    
Minimum Humidity 81    
Precipitation  
Precipitation 1.93 in 0.15 in - ()
Sea Level Pressure  
Sea Level Pressure 29.74 in    
Wind  
Wind Speed 13 mph ()    
Max Wind Speed 31 mph    
Max Gust Speed 45 mph    
Visibility 5.0 miles    
Events Rain    
Averages and records for this station are not official NWS values.
T = Trace of Precipitation, MM = Missing Value Source: Averaged Metar Reports

Daily Weather History Graph

Daily Weather History Graph

Search for Another Location

Airport:

Trip Planner

Search our weather history database for the weather conditions in past years. The results will help you decide how hot, cold, wet, or windy it might be!

Date:

Astronomy

Oct. 13, 2012 Rise Set
Actual Time 6:05 AM AST 5:51 PM AST
Civil Twilight 5:43 AM AST 6:13 PM AST
Nautical Twilight 5:18 AM AST 6:38 PM AST
Astronomical Twilight 4:52 AM AST 7:03 PM AST
Moon 4:04 AM AST (10/13) 4:23 PM AST (10/13)
Length of Visible Light 12h 29m
Length of Day
11h 45m
Waning Crescent, 5% of the Moon is Illuminated
Oct 13
Waning Crescent
Oct 15
New
Oct 21
First Quarter
Oct 29
Full
Nov 6
Last Quarter

Hourly Weather History & Observations

Time (AST) Temp. Heat Index Dew Point Humidity Pressure Visibility Wind Dir Wind Speed Gust Speed Precip Events Conditions
12:00 AM 78.8 °F - 75.2 °F 89% 29.83 in 6.2 mi ESE 13.8 mph 26.5 mph N/A Rain Light Rain
1:00 AM 78.8 °F - 75.2 °F 89% 29.80 in 6.2 mi East 11.5 mph - N/A Rain Light Rain Showers
2:00 AM 79 °F - 74 °F 82% 29.80 in 5 mi SE 12.7 mph - - Rain Light Rain Showers
2:00 AM 78.8 °F - 75.2 °F 89% 29.77 in 5.0 mi ESE 11.5 mph - N/A Rain Light Rain Showers
3:00 AM 78.8 °F - 75.2 °F 89% 29.77 in 5.0 mi ESE 8.1 mph - N/A Rain Light Rain Showers
4:00 AM 78.8 °F - 75.2 °F 89% 29.77 in 6.2 mi ESE 9.2 mph - N/A Rain Light Rain Showers
5:00 AM 79 °F - 75 °F 83% 29.78 in 9 mi East 10.4 mph - - Rain Light Rain Showers
5:00 AM 78.8 °F - 75.2 °F 89% 29.77 in 6.2 mi East 10.4 mph - N/A   Mostly Cloudy
6:00 AM 77.0 °F - 75.2 °F 94% 29.77 in 2.5 mi East 9.2 mph - N/A Rain Light Rain Showers
7:00 AM 77.0 °F - 75.2 °F 94% 29.80 in 1.6 mi ESE 10.4 mph - N/A Rain Rain Showers
8:00 AM 80 °F - 79 °F 94% 29.82 in 6 mi ESE 5.8 mph - - Rain Light Rain Showers
8:00 AM 80.6 °F 87.1 °F 77.0 °F 89% 29.80 in 6.2 mi ESE 5.8 mph - N/A Rain Light Rain Showers
9:00 AM 80.6 °F 86.2 °F 75.2 °F 84% 29.83 in 6.2 mi SSE 5.8 mph - N/A Rain Light Rain Showers
10:00 AM 78.8 °F - 75.2 °F 89% 29.83 in 6.2 mi SSE 9.2 mph - N/A Rain Light Rain
11:00 AM 77 °F - 74 °F 90% 29.83 in 4 mi SSE 17.3 mph - - Rain Light Rain Showers
11:00 AM 77.0 °F - 75.2 °F 94% 29.80 in 3.7 mi SSE 17.3 mph - N/A Rain Light Rain Showers
11:35 AM 78.8 °F - 75.2 °F 89% 29.65 in 2.5 mi SE 26.5 mph 40.3 mph N/A Rain Rain
12:00 PM 77.0 °F - 73.4 °F 89% 29.80 in 3.7 mi SE 12.7 mph - N/A Rain Rain
1:00 PM 78.8 °F - 77.0 °F 94% 29.74 in 6.2 mi SSE 9.2 mph - N/A Rain Light Rain
2:00 PM 79 °F - 76 °F 87% 29.73 in 12 mi SSE 13.8 mph - - Rain Light Rain
2:00 PM 78.8 °F - 75.2 °F 89% 29.71 in 6.2 mi SE 13.8 mph - N/A   Scattered Clouds
3:00 PM 78.8 °F - 75.2 °F 89% 29.71 in 6.2 mi ESE 10.4 mph - N/A Rain Light Rain Showers
4:00 PM 77.0 °F - 75.2 °F 94% 29.68 in 6.2 mi ESE 12.7 mph 25.3 mph N/A Rain Light Rain
5:00 PM 79 °F - 75 °F 85% 29.68 in 5 mi SE 18.4 mph - - Rain Light Rain
5:00 PM 78.8 °F - 77.0 °F 94% 29.68 in 5.0 mi ESE 20.7 mph 39.1 mph N/A Rain Rain
5:35 PM 78.8 °F - 75.2 °F 89% 29.65 in 2.5 mi SE 26.5 mph 40.3 mph N/A Rain Rain
6:00 PM 80.6 °F 87.1 °F 77.0 °F 89% 29.65 in 2.5 mi SE 27.6 mph - N/A Rain Rain
7:00 PM 78.8 °F - 77.0 °F 94% 29.65 in 5.6 mi SE 31.1 mph - N/A Rain Rain
7:34 PM 78.8 °F - 77.0 °F 94% 29.68 in 1.2 mi SE 31.1 mph 44.9 mph N/A Rain Heavy Rain Showers
8:00 PM 78 °F - 76 °F 92% 29.70 in 1 mi SE 27.6 mph - - Rain Heavy Rain Showers
8:00 PM 77.0 °F - 77.0 °F 100% 29.71 in 1.2 mi SE 27.6 mph - N/A Rain Heavy Rain Showers
9:00 PM 78.8 °F - 77.0 °F 94% 29.68 in 5.0 mi SE 28.8 mph - N/A Rain Rain
10:00 PM 82.4 °F 90.9 °F 77.0 °F 84% 29.68 in 6.2 mi SSE 11.5 mph - N/A Rain Light Rain
11:00 PM 82 °F - 77 °F 81% 29.70 in 5 mi South 10.4 mph - - Rain Light Rain Showers
11:00 PM 82.4 °F 90.9 °F 77.0 °F 84% 29.68 in 5.0 mi South 10.4 mph - N/A Rain Light Rain Showers